Terug naar catalogus

PEGASUS DEB

ActiefPO
NORAD 24817·DEBRIS·🇺🇸 United States

Gelanceerd May 19, 1994 vanaf Vandenberg Space Force Base

Loading…

Volgende Passages (komende 24 uur)

TLE

VersSource: Space-Track

Epoch: Sep 14, 2026, 12:33 UTC

1 24817U 94029ABU 26257.52359197  .00001510  00000-0  36240-3 0  9994
2 24817  81.6853 274.3919 0357784 182.2121 332.6554 14.20510419533366

Volg PEGASUS DEB in realtime met AllMySat

Download on the App Store